Location: Blankensee
(53.5126°N, 14.3055°E)
Time: 18:58:17
(UTC+00:00)

Cosmos 2333 Rocket - Pass Details

Date: 08 August 2020
Orbit: 837 x 864 km, 70.8° (Epoch: 20 September)

Event Time Altitude Azimuth Distance (km) Brightness Sun altitude
Rises 00:27:43 0° 320° (NW) 3,457 5.8 -18.4°
Reaches altitude 10° 00:30:48 10° 304° (NW) 2,514 4.8 -18.2°
Maximum altitude 00:34:50 20° 260° (W) 1,895 3.7 -18.0°
Enters shadow 00:35:48 19° 246° (WSW) 1,934 3.7 -17.9°
